This demonstration page uses our WeatherBlox Daily Observations layout. Learn more.

Left ArrowRight Arrow

53.62937, 11.41316

Hourly Observations for July 24, 2018

Temp ( °F °C ) Dew Point ( °F °C ) Humidity (%) Winds ( mph kmh ) Pressure ( in mb ) Visibility ( mi km ) Precip ( " mm )
6:50 am 06:50 Mostly Sunny 66 19 61 16 83 83 VRB 1 2 30.00 1016 7 11 N/A
7:20 am 07:20 Mostly Sunny 68 20 61 16 78 78 Calm 30.00 1016 7 11 N/A
7:50 am 07:50 Mostly Sunny 70 21 59 15 69 69 VRB 2 4 30.00 1016 7 11 N/A
8:20 am 08:20 Mostly Sunny 73 23 61 16 65 65 SSW 5 7 30.00 1016 7 11 N/A
8:50 am 08:50 Mostly Sunny 75 24 61 16 61 61 SSW 5 7 30.00 1016 7 11 N/A
9:20 am 09:20 Mostly Sunny 77 25 63 17 61 61 S 5 7 30.00 1016 7 11 N/A
9:50 am 09:50 Mostly Sunny 79 26 61 16 54 54 S 5 7 30.00 1016 7 11 N/A
10:20 am 10:20 Mostly Sunny 81 27 61 16 51 51 SW 6 9 30.00 1016 7 11 N/A
10:50 am 10:50 Mostly Sunny 81 27 61 16 51 51 WSW 3 6 30.00 1016 7 11 N/A
11:20 am 11:20 Mostly Sunny 82 28 61 16 48 48 S 5 7 30.00 1016 7 11 N/A
11:50 am 11:50 Mostly Sunny 84 29 61 16 45 45 VRB 5 7 30.00 1016 7 11 N/A
12:20 pm 12:20 Mostly Sunny 86 30 61 16 43 43 VRB 6 9 29.97 1015 7 11 N/A
12:50 pm 12:50 Mostly Sunny 84 29 61 16 45 45 VRB 2 4 29.97 1015 7 11 N/A
1:20 pm 13:20 Mostly Sunny 86 30 61 16 43 43 VRB 5 7 29.97 1015 7 11 N/A
1:50 pm 13:50 Mostly Sunny 86 30 59 15 40 40 VRB 3 6 29.97 1015 7 11 N/A
2:20 pm 14:20 Mostly Sunny 86 30 59 15 40 40 VRB 5 7 29.97 1015 7 11 N/A
2:50 pm 14:50 Mostly Sunny 88 31 61 16 40 40 VRB 6 9 29.94 1014 7 11 N/A
3:20 pm 15:20 Mostly Sunny 88 31 61 16 40 40 VRB 2 4 29.94 1014 7 11 N/A
3:50 pm 15:50 Mostly Sunny 90 32 61 16 38 38 VRB 5 7 29.94 1014 7 11 N/A
4:20 pm 16:20 Mostly Sunny 90 32 59 15 36 36 VRB 5 7 29.94 1014 7 11 N/A
4:50 pm 16:50 Mostly Sunny 90 32 59 15 36 36 WNW 5 7 29.94 1014 7 11 N/A
5:20 pm 17:20 Mostly Sunny 90 32 61 16 38 38 E 5 7 29.94 1014 7 11 N/A
5:50 pm 17:50 Mostly Sunny 88 31 61 16 40 40 VRB 8 13 29.94 1014 7 11 N/A
6:20 pm 18:20 Mostly Sunny 86 30 61 16 43 43 NE 10 17 29.94 1014 7 11 N/A
6:50 pm 18:50 Mostly Sunny 86 30 61 16 43 43 NE 13 20 29.94 1014 7 11 N/A
7:20 pm 19:20 Mostly Sunny 84 29 61 16 45 45 NE 13 20 29.94 1014 7 11 N/A
7:50 pm 19:50 Mostly Sunny 82 28 63 17 51 51 ENE 9 15 29.94 1014 7 11 N/A
8:20 pm 20:20 Mostly Sunny 81 27 63 17 54 54 E 10 17 29.94 1014 7 11 N/A
8:50 pm 20:50 Mostly Sunny 79 26 63 17 58 58 ENE 7 11 29.94 1014 7 11 N/A

Powered by AerisWeather